HST 1 20580U 90037B 08285.41784545 +.00000318 +00000-0 +11716-4 0 02495 2 20580 028.4704 285.1185 0003900 176.8859 183.1756 15.00414842812458 ISS (ZARYA) 1 25544U 98067A 08286.56127851 .00008196 00000-0 65446-4 0 4278 2 25544 051.6427 134.5774 0003862 208.0945 175.0815 15.72157843567003 CXO 1 25867U 99040B 08286.58333333 +.00000548 +00000-0 +10000-3 0 02528 2 25867 064.3220 077.2308 7048682 277.6918 000.3617 00.37809055004074